Weather History for Trinidad, CO

Change the Weather History Date:

Friday, March 22, 2013

  Actual Average Record
Temperature  
Mean Temperature 44 °F 44 °F  
Max Temperature 56 °F 59 °F 76 °F (2009)
Min Temperature 31 °F 28 °F 2 °F (1952)
Degree Days  
Heating Degree Days 21 21  
Month to date heating degree days 490 524  
Since 1 July heating degree days 4431 4646  
Cooling Degree Days 0 0  
Month to date cooling degree days 0 0  
Year to date cooling degree days 0 0  
Moisture  
Dew Point 27 °F    
Average Humidity 59    
Maximum Humidity 92    
Minimum Humidity 26    
Precipitation  
Precipitation 0.00 in 0.03 in 0.30 in (1987)
Month to date precipitation 0.15 0.61  
Year to date precipitation 0.53 1.50  
Sea Level Pressure  
Sea Level Pressure 29.71 in    
Wind  
Wind Speed 13 mph (SE)    
Max Wind Speed 35 mph    
Max Gust Speed 43 mph    
Visibility 9 miles    
Events      
T = Trace of Precipitation, MM = Missing Value Source: NWS Daily Summary

Daily Weather History Graph

Daily Weather History Graph

Search for Another Location

Airport:

Trip Planner

Search our weather history database for the weather conditions in past years. The results will help you decide how hot, cold, wet, or windy it might be!

Date:

Astronomy

Mar. 22, 2013 Rise Set
Actual Time 6:57 AM MDT 7:11 PM MDT
Civil Twilight 6:31 AM MDT 7:37 PM MDT
Nautical Twilight 6:00 AM MDT 8:07 PM MDT
Astronomical Twilight 5:30 AM MDT 8:38 PM MDT
Moon 2:46 PM MDT (3/22) 3:53 AM MDT (3/22)
Length of Visible Light 13h 05m
Length of Day
12h 13m
Waxing Gibbous, 78% of the Moon is Illuminated
Mar 22
Waxing Gibbous
Mar 27
Full
Apr 2
Last Quarter
Apr 10
New
Apr 18
First Quarter

Hourly Weather History & Observations

Time (MDT) Temp. Windchill Dew Point Humidity Pressure Visibility Wind Dir Wind Speed Gust Speed Precip Events Conditions
12:54 AM 34.0 °F 31.0 °F 30.9 °F 89% 29.75 in 10.0 mi NNW 3.5 mph - N/A   Clear
1:28 AM 33.8 °F 29.6 °F 30.2 °F 87% 29.85 in 10.0 mi NNE 4.6 mph - N/A   Mostly Cloudy
1:54 AM 35.1 °F 29.3 °F 30.0 °F 82% 29.72 in 10.0 mi NNE 6.9 mph - N/A   Overcast
2:54 AM 36.0 °F - 30.9 °F 82% 29.70 in 10.0 mi Calm Calm - N/A   Overcast
3:08 AM 35.6 °F - 30.2 °F 81% 29.83 in 10.0 mi Calm Calm - N/A   Overcast
3:54 AM 34.0 °F 29.8 °F 30.9 °F 89% 29.71 in 10.0 mi SSE 4.6 mph - N/A   Overcast
4:01 AM 33.8 °F 29.6 °F 30.2 °F 87% 29.82 in 10.0 mi SE 4.6 mph - N/A   Overcast
4:15 AM 33.8 °F 29.6 °F 30.2 °F 87% 29.82 in 10.0 mi SE 4.6 mph - N/A   Overcast
4:54 AM 35.1 °F 32.2 °F 30.9 °F 85% 29.72 in 10.0 mi ESE 3.5 mph - N/A   Overcast
5:54 AM 34.0 °F 31.0 °F 30.9 °F 89% 29.73 in 10.0 mi ESE 3.5 mph - N/A   Overcast
6:34 AM 33.8 °F 27.7 °F 30.2 °F 87% 29.83 in 9.0 mi East 6.9 mph - N/A   Overcast
6:54 AM 32.0 °F 26.4 °F 30.0 °F 92% 29.77 in 6.0 mi East 5.8 mph - N/A   Overcast
7:06 AM 32.0 °F 25.6 °F 30.2 °F 93% 29.84 in 1.8 mi East 6.9 mph - N/A   Overcast
7:17 AM 32.0 °F 24.8 °F 30.2 °F 93% 29.84 in 3.0 mi ESE 8.1 mph - N/A   Overcast
7:54 AM 32.0 °F 24.2 °F 28.9 °F 88% 29.80 in 9.0 mi East 9.2 mph - N/A   Overcast
8:36 AM 33.8 °F 26.4 °F 30.2 °F 87% 29.86 in 10.0 mi SE 9.2 mph - N/A   Overcast
8:54 AM 35.1 °F 26.4 °F 28.9 °F 78% 29.83 in 10.0 mi SE 12.7 mph - N/A   Overcast
9:54 AM 35.1 °F 26.9 °F 27.0 °F 72% 29.84 in 10.0 mi SE 11.5 mph - N/A   Overcast
10:54 AM 42.1 °F 35.7 °F 25.0 °F 51% 29.78 in 10.0 mi ESE 11.5 mph - N/A   Overcast
11:54 AM 45.0 °F - 24.1 °F 44% 29.74 in 10.0 mi Calm Calm - N/A   Partly Cloudy
12:54 PM 51.1 °F - 21.9 °F 32% 29.67 in 10.0 mi SW 9.2 mph 21.9 mph N/A   Clear
1:54 PM 54.0 °F - 19.0 °F 25% 29.59 in 10.0 mi SW 29.9 mph 42.6 mph N/A   Clear
2:54 PM 51.1 °F - 24.1 °F 35% 29.61 in 10.0 mi SW 29.9 mph 41.4 mph N/A   Partly Cloudy
3:54 PM 48.9 °F - 27.0 °F 43% 29.60 in 10.0 mi South 23.0 mph 31.1 mph N/A   Overcast
4:54 PM 52.0 °F - 27.0 °F 38% 29.55 in 10.0 mi South 24.2 mph 28.8 mph N/A   Partly Cloudy
5:54 PM 52.0 °F - 17.1 °F 25% 29.53 in 10.0 mi SW 12.7 mph - N/A   Clear
6:54 PM 48.9 °F - 21.0 °F 33% 29.54 in 10.0 mi ESE 3.5 mph - N/A   Scattered Clouds
7:54 PM 44.1 °F 38.1 °F 14.0 °F 30% 29.57 in 10.0 mi SW 11.5 mph - N/A   Partly Cloudy
8:54 PM 46.9 °F - 19.0 °F 33% 29.54 in 10.0 mi South 16.1 mph - N/A   Clear
9:54 PM 46.0 °F 39.3 °F 26.1 °F 46% 29.56 in 10.0 mi SW 16.1 mph - N/A   Clear
10:54 PM 36.0 °F 25.6 °F 24.1 °F 62% 29.65 in 10.0 mi NNW 18.4 mph 24.2 mph N/A   Clear
11:54 PM 32.0 °F 19.8 °F 23.0 °F 69% 29.69 in 10.0 mi NW 20.7 mph 28.8 mph N/A   Clear